Location: Cheyres
(46.8153°N, 6.7877°E)
Time: 20:04:55
(UTC+00:00)

BlueWalker 3 - Pass Details

Date: 01 March 2024
Orbit: 485 x 495 km, 53.2° (Epoch: 21 April)

Event Time Altitude Azimuth Distance (km) Brightness Sun altitude
Rises 19:29:32 0° 299° (WNW) 2,561 6.9 -23.0°
Reaches altitude 10° 19:31:44 10° 296° (WNW) 1,676 5.6 -23.3°
Enters shadow 19:34:59 57° 258° (WSW) 577 2.4 -23.9°
